Temperature
21 21 21 21 21 21 21 21 21 21 21 21 21 21 21 21 21 21 21 20 20 20 20 20 20 20 20 20 20 20 20 20 20 20 20 20 20 20 20 20 19 19 18
22 22 21 22 22 22 21 21 21 20 20 21 21 21 21 21 21 21 21 20 20 20 20 20 20 20 20 20 20 20 20 20 20 20 20 20 20 20 20 20 20 20 19
22 22 21 22 22 22 21 21 21 20 20 20 20 21 21 21 21 20 20 20 20 20 20 20 20 20 20 20 20 20 20 20 20 20 20 20 19 19 20 20 20 20 20
23 22 21 22 22 22 21 21 21 20 20 20 20 20 20 20 20 20 20 20 20 20 20 20 20 20 20 20 20 20 20 20 20 20 19 19 19 19 19 20 20 19 19
23 23 22 22 22 21 21 21 21 20 20 20 20 20 20 20 20 20 20 20 20 20 20 20 20 20 20 20 20 20 20 20 20 19 19 18 18 18 18 19 19 19 19
23 23 22 21 21 21 21 21 21 20 20 20 20 20 20 20 20 20 20 20 20 20 20 20 20 20 20 20 20 20 20 20 20 19 19 18 18 18 18 18 19 19 19
23 22 22 21 21 21 21 21 20 20 20 20 20 20 20 20 19 19 19 19 20 20 20 20 20 20 20 20 19 19 19 19 19 19 19 18 18 18 17 18 18 18 19
23 23 22 21 21 21 21 21 20 20 20 20 20 20 19 19 19 19 20 19 19 20 20 20 20 20 19 19 19 19 19 19 19 19 19 19 18 18 17 17 18 18 18
22 23 22 21 21 21 21 21 21 20 20 20 20 20 20 19 19 19 20 19 19 19 19 19 19 19 19 19 19 19 18 19 19 19 19 18 18 18 17 17 17 17 18
22 22 22 22 22 21 21 21 21 21 21 21 21 20 20 20 20 20 19 19 19 19 19 19 19 19 19 19 18 18 18 19 19 18 18 18 18 18 17 17 18 18 18
21 21 21 22 22 22 21 21 21 21 20 20 20 20 20 20 20 20 19 19 19 19 19 19 19 19 19 19 18 18 18 19 19 18 18 19 19 18 18 18 18 18 18
21 21 21 21 22 22 21 21 21 21 20 20 20 21 20 20 20 19 19 19 19 19 19 19 19 18 19 19 19 19 19 19 19 19 19 19 19 18 18 18 18 18 18
21 21 20 20 21 21 21 21 21 20 20 20 21 21 20 20 19 19 19 19 19 19 18 19 19 19 19 19 19 19 19 19 19 19 19 19 19 19 19 19 18 18 18
21 20 20 20 20 20 21 21 21 20 20 20 21 20 20 20 20 19 19 19 19 19 18 18 18 19 19 19 19 19 19 19 19 19 19 19 19 19 19 19 19 19 18
21 21 20 20 20 20 20 21 21 20 20 20 20 20 20 20 20 19 19 19 18 18 18 18 18 19 19 19 19 19 19 19 19 19 19 19 19 19 19 19 19 19 19
22 21 21 20 20 20 20 20 20 20 20 20 20 20 19 19 19 19 19 19 19 19 19 18 18 18 18 19 19 19 19 19 19 19 19 19 19 19 19 19 19 19 19
22 22 21 21 20 20 20 20 20 19 19 19 19 19 19 19 19 19 19 19 19 19 19 18 18 18 18 18 18 18 18 19 19 19 19 19 19 19 19 19 19 19 19
21 21 21 20 20 19 19 19 18 18 18 18 18 18 18 18 18 18 19 19 19 19 18 18 18 18 18 18 18 18 19 19 19 19 19 19 19 19 19 19 19 18 19
21 20 20 19 19 19 18 18 18 18 19 19 19 18 18 18 18 19 19 19 18 18 18 18 18 18 18 18 18 18 19 19 19 19 19 19 19 19 19 19 19 18 18
20 20 19 19 19 19 19 19 19 19 19 19 19 19 19 19 19 18 18 18 18 18 18 18 18 18 18 18 18 18 18 19 19 19 19 19 19 19 19 19 19 18 18
19 19 19 19 19 19 19 18 18 18 19 19 19 19 19 18 18 18 18 18 18 18 18 18 18 18 18 18 18 18 18 18 19 19 19 19 19 19 19 18 18 18 18
20 20 19 19 19 19 19 19 18 18 18 19 19 19 18 18 18 18 18 18 18 18 18 18 17 17 18 18 17 17 17 18 19 19 19 18 18 18 18 18 18 18 18
21 20 20 20 20 19 19 18 18 18 18 18 18 18 18 18 17 17 17 17 17 17 17 17 17 17 17 17 17 16 16 16 17 17 17 17 17 18 18 18 18 18 18
21 21 21 20 20 19 19 18 18 17 17 16 16 16 17 17 17 17 16 16 16 16 16 16 16 16 16 16 16 16 16 15 15 16 17 17 17 17 17 18 17 17 17
22 21 20 20 20 19 19 18 17 17 16 16 16 16 16 16 16 16 16 16 16 16 16 16 16 16 16 16 16 15 15 15 15 15 15 16 16 16 17 17 17 17 17
21 21 20 20 19 19 18 18 17 16 16 16 16 16 16 16 16 16 16 16 15 15 15 15 15 15 15 15 15 15 15 15 15 15 15 15 16 16 16 16 17 16 16
Wind_Speed
12 17 24 24 23 20 18 16 14 14 14 14 15 16 17 17 17 16 15 14 13 13 12 12 13 12 11 12 13 13 12 10 11 12 13 13 12 11 10 10 12 10 10
15 20 26 26 25 23 20 18 15 14 13 13 13 14 14 14 14 14 13 13 12 11 11 11 11 11 10 10 9 10 10 8 7 8 10 10 10 9 7 8 11 10 10
18 18 24 26 25 23 22 19 17 15 14 13 12 12 12 12 12 12 12 12 11 10 10 10 9 9 8 8 7 6 6 6 5 4 5 6 7 7 9 13 13 12 11
18 17 20 25 24 23 22 20 18 17 15 14 12 12 11 11 11 10 10 11 11 10 9 9 8 8 7 6 5 4 2 3 2 2 2 3 5 7 9 12 12 11 10
16 18 21 25 24 23 22 21 20 18 17 15 13 12 11 11 10 10 9 10 9 9 8 8 8 7 7 6 6 5 4 3 3 3 3 5 7 8 10 11 11 11 10
15 17 21 24 24 23 22 21 20 19 17 16 14 12 11 11 10 10 10 10 10 9 8 8 7 7 7 7 7 7 7 6 6 5 5 8 10 14 13 12 12 11 11
14 14 19 23 22 22 22 20 19 19 18 16 15 13 12 11 11 11 11 11 10 10 9 9 9 9 8 8 7 8 9 8 8 7 7 7 10 17 17 15 14 13 13
17 13 17 21 21 21 21 20 20 19 18 17 15 13 11 11 10 11 12 11 11 11 10 10 11 10 10 10 9 9 10 10 9 9 8 7 11 17 19 18 18 17 16
15 13 12 17 19 21 22 22 21 20 20 18 16 15 13 12 12 13 13 13 12 12 11 11 12 12 12 12 12 12 13 13 12 10 10 8 10 17 21 21 20 19 18
14 13 10 12 14 16 18 21 21 21 20 19 18 17 16 14 13 14 14 14 14 14 15 15 15 15 15 15 14 15 15 14 14 14 12 12 12 15 20 22 22 21 21
13 11 11 9 10 12 13 17 18 19 19 18 16 17 16 14 15 14 16 17 17 18 18 18 19 19 18 17 17 18 17 13 14 12 12 15 17 17 20 23 23 23 23
13 11 10 9 7 9 12 11 11 12 13 14 13 14 14 13 14 14 16 20 20 21 21 21 21 20 18 14 16 18 14 15 15 13 14 18 19 18 20 25 25 25 25
14 13 11 10 7 7 5 7 8 9 10 12 14 15 14 12 12 13 12 15 18 20 18 18 19 16 14 12 11 13 14 13 13 14 16 19 21 20 19 24 27 27 25
12 13 12 12 10 9 8 7 8 8 8 10 14 16 12 7 7 8 8 11 12 13 11 12 10 12 14 15 14 13 14 11 12 14 16 21 22 22 21 23 25 26 26
12 11 12 13 13 12 9 7 8 8 9 12 14 17 16 8 9 7 7 9 11 12 10 8 8 9 10 12 12 12 11 11 12 14 14 21 23 22 23 24 26 26 26
12 11 12 15 16 13 11 10 10 9 10 12 12 16 18 14 8 10 10 8 8 11 12 9 9 11 11 9 9 9 10 10 12 14 15 18 22 24 25 27 27 26 25
10 10 11 13 14 12 11 10 6 7 8 6 9 15 16 16 13 10 10 9 8 10 10 7 7 6 7 6 7 7 7 7 9 11 14 16 17 21 26 27 27 26 26
2 2 4 4 6 7 5 4 3 2 3 4 6 8 11 14 16 9 9 9 7 7 5 5 5 4 5 5 5 5 5 6 9 9 11 13 15 16 20 26 27 26 27
7 5 5 5 2 2 4 4 4 3 4 5 7 7 9 10 12 8 10 10 7 6 7 6 5 4 5 5 5 6 6 7 9 10 9 11 13 15 17 20 23 25 27
5 5 3 2 3 3 1 1 2 4 4 4 4 5 8 9 10 7 9 10 9 8 8 6 6 6 5 5 6 7 7 8 9 10 11 10 10 13 16 17 15 17 25
3 2 1 2 3 2 1 1 2 4 4 5 6 6 7 8 8 7 7 8 9 10 11 10 7 7 7 4 3 5 6 10 13 13 11 10 11 10 12 14 12 12 13
1 1 2 4 4 4 4 4 4 4 5 5 6 7 8 8 7 7 8 7 7 7 8 8 7 5 5 6 5 3 4 5 7 10 10 10 10 9 11 10 8 8 9
3 5 5 6 7 7 6 4 3 3 4 4 6 6 8 7 7 8 8 8 8 8 8 10 9 8 7 7 7 5 4 6 4 4 4 5 5 5 6 5 6 6 6
8 8 8 8 8 8 7 5 6 5 6 7 6 7 9 9 10 9 9 9 9 8 9 9 9 8 8 7 5 6 5 4 3 4 4 3 4 3 3 3 4 4 2
10 8 7 7 7 7 6 5 4 4 4 5 6 8 9 9 10 10 9 9 9 9 9 9 8 9 8 7 6 4 5 5 6 5 5 4 3 3 3 3 2 1 2
6 5 5 4 4 4 3 2 1 1 3 5 7 8 9 9 10 11 10 9 9 9 10 10 9 9 8 8 7 6 5 4 5 5 6 3 3 3 3 3 2 2 2
Wind_Direction
158 161 158 156 153 150 147 142 133 122 115 112 110 109 107 107 107 110 113 114 115 116 115 112 109 105 102 101 103 106 107 112 119 121 119 115 114 113 116 117 112 106 105
152 159 159 158 157 154 149 143 136 129 125 121 118 117 116 116 117 119 123 125 124 124 123 120 115 111 107 103 104 108 111 111 111 114 117 119 121 117 119 145 132 127 118
145 157 160 159 159 156 150 146 143 143 142 139 136 133 131 130 130 131 134 135 135 133 131 130 127 122 119 117 114 114 114 111 106 110 115 119 131 131 121 133 138 138 134
144 152 160 162 162 158 152 149 150 153 155 155 155 152 148 147 147 146 145 144 145 147 146 146 143 141 142 143 144 148 149 133 133 171 195 195 186 167 148 143 148 149 148
145 152 161 165 166 162 157 156 158 161 164 166 168 167 165 164 164 162 159 156 156 159 163 165 163 162 167 173 178 187 206 219 215 227 258 266 244 200 181 167 163 162 163
150 154 160 165 169 168 165 164 165 167 169 172 175 177 177 179 178 175 174 174 172 174 178 181 184 186 191 197 202 210 219 233 243 245 254 267 241 209 198 189 182 180 179
151 155 161 165 169 171 170 171 171 173 175 178 182 185 188 191 190 185 186 191 191 192 196 197 202 203 209 214 223 228 227 237 246 247 254 265 221 201 199 199 195 195 193
155 158 162 166 169 170 170 172 176 179 182 184 187 190 194 200 200 192 194 202 208 210 212 217 217 211 216 220 225 230 235 243 252 245 246 247 227 211 202 204 206 204 199
156 159 162 169 172 173 173 175 179 183 185 188 191 194 199 206 207 202 202 210 218 221 222 224 221 221 224 227 228 232 236 240 249 254 258 258 238 222 215 211 211 214 208
158 164 166 171 174 176 179 180 183 188 191 192 194 197 199 203 208 209 209 217 223 226 227 227 227 228 229 231 236 242 244 244 244 245 247 252 254 239 228 219 218 218 217
162 169 169 171 172 176 182 189 190 195 199 199 201 205 206 211 213 214 217 222 227 229 229 231 233 235 234 234 239 244 248 245 243 242 239 242 245 243 231 223 223 223 221
169 173 174 173 169 173 188 192 195 199 203 204 207 212 212 216 222 224 226 229 231 232 233 235 238 241 244 239 241 246 243 239 246 245 240 241 246 251 237 224 222 224 224
173 175 178 178 174 179 194 182 193 203 205 208 211 215 218 223 229 233 233 236 236 237 236 238 240 241 243 238 237 240 242 238 240 243 242 242 247 251 240 221 219 222 224
170 180 179 180 183 191 196 190 196 205 209 213 216 218 220 227 232 233 236 234 230 231 233 233 234 236 239 239 239 245 247 241 235 236 240 242 245 242 232 217 216 220 224
175 184 179 182 189 196 200 200 201 208 213 217 219 222 221 222 230 229 234 231 227 224 225 225 230 237 240 241 239 242 248 243 236 237 243 247 243 234 227 218 216 220 224
180 187 179 185 194 198 202 206 208 211 218 220 221 225 224 227 232 234 233 228 222 220 221 221 225 233 237 237 234 234 241 244 240 238 241 246 242 232 228 226 225 225 225
184 182 175 187 196 202 207 208 206 213 217 223 228 230 230 231 235 236 235 233 226 217 211 211 219 221 227 225 229 235 243 251 249 239 238 240 241 236 233 232 232 231 228
72 187 160 177 198 218 235 251 263 257 262 251 247 241 241 239 239 237 236 238 228 213 200 199 196 201 212 213 224 241 252 263 260 249 243 241 241 242 239 236 236 235 232
72 79 78 66 94 231 257 277 285 285 279 272 273 262 256 253 248 234 237 238 226 216 212 208 201 195 211 221 230 243 245 249 255 256 250 244 242 239 239 240 240 237 236
97 103 109 118 147 164 166 313 319 311 295 285 275 271 271 264 255 236 240 237 224 223 226 220 213 203 210 214 235 250 246 245 248 247 246 246 245 243 242 242 240 240 240
63 78 178 209 206 188 208 241 255 258 261 271 269 266 273 271 258 243 243 240 229 227 227 220 214 214 220 187 207 264 265 249 248 249 246 243 245 244 241 241 233 233 242
39 127 192 210 215 207 206 214 221 239 259 262 271 278 277 275 267 253 243 242 236 233 229 219 211 213 215 187 196 220 281 298 259 248 248 247 249 247 239 233 226 225 229
217 208 205 215 217 212 211 220 258 286 296 296 294 292 288 283 277 267 251 245 240 229 232 229 219 215 225 217 204 193 205 241 294 292 260 257 270 257 241 224 209 212 225
209 206 203 210 213 216 211 211 227 248 268 274 282 286 292 289 282 272 263 252 243 232 230 231 224 219 217 226 215 214 214 198 227 300 309 303 298 274 262 236 211 211 207
204 201 206 211 216 220 217 220 239 263 274 292 307 307 305 300 291 281 271 261 248 234 226 224 223 217 212 213 206 196 217 228 223 231 273 300 316 285 265 265 262 252 149
219 216 215 208 219 216 190 158 134 330 337 338 331 325 318 310 300 289 278 264 248 235 226 224 224 220 215 212 205 192 186 196 206 212 228 250 288 299 328 353 3 18 79
Height
1523 1527 1529 1532 1533 1535 1536 1537 1539 1540 1541 1542 1542 1542 1543 1543 1544 1546 1547 1548 1548 1549 1550 1550 1551 1552 1552 1553 1553 1553 1553 1554 1553 1554 1554 1554 1555 1555 1555 1555 1555 1555 1556
1520 1525 1528 1530 1532 1534 1536 1537 1539 1541 1542 1543 1543 1544 1544 1545 1545 1546 1547 1548 1549 1549 1550 1551 1552 1552 1553 1554 1554 1554 1555 1556 1556 1556 1557 1557 1557 1557 1557 1557 1557 1557 1558
1522 1524 1527 1529 1532 1534 1536 1538 1539 1540 1542 1543 1544 1544 1545 1546 1546 1546 1547 1548 1549 1550 1550 1551 1552 1553 1554 1555 1555 1556 1556 1556 1557 1558 1558 1559 1559 1559 1559 1559 1558 1559 1559
1522 1525 1527 1530 1532 1534 1536 1538 1539 1541 1542 1543 1544 1545 1546 1546 1546 1547 1547 1548 1549 1549 1550 1551 1552 1553 1553 1554 1555 1556 1556 1556 1557 1558 1558 1559 1559 1560 1560 1561 1560 1560 1561
1521 1524 1527 1530 1532 1534 1536 1538 1539 1540 1541 1543 1544 1545 1546 1546 1546 1547 1548 1548 1549 1549 1550 1551 1552 1552 1553 1554 1554 1555 1556 1556 1556 1557 1557 1558 1559 1559 1560 1561 1562 1562 1562
1520 1523 1526 1529 1531 1534 1536 1538 1539 1540 1541 1542 1544 1545 1546 1546 1546 1547 1548 1548 1549 1549 1550 1551 1551 1552 1552 1553 1553 1554 1555 1555 1556 1556 1556 1557 1557 1558 1560 1560 1561 1562 1562
1520 1523 1525 1528 1530 1533 1535 1538 1540 1541 1542 1542 1543 1544 1545 1546 1546 1546 1547 1548 1549 1549 1549 1550 1550 1551 1551 1552 1552 1553 1553 1553 1554 1554 1555 1555 1556 1557 1558 1559 1560 1561 1561
1520 1523 1525 1528 1530 1532 1535 1537 1539 1540 1541 1542 1543 1544 1545 1545 1546 1546 1546 1547 1548 1548 1549 1549 1550 1550 1550 1551 1551 1551 1551 1551 1551 1552 1552 1553 1553 1554 1556 1557 1558 1559 1559
1521 1523 1525 1527 1529 1531 1533 1534 1536 1538 1539 1540 1541 1542 1543 1544 1545 1545 1546 1546 1547 1548 1548 1548 1549 1549 1549 1549 1549 1549 1549 1549 1549 1549 1549 1550 1551 1552 1553 1554 1555 1556 1557
1521 1523 1525 1527 1529 1530 1532 1533 1535 1536 1538 1539 1539 1540 1541 1542 1543 1543 1544 1545 1546 1546 1547 1547 1547 1547 1548 1547 1547 1546 1545 1545 1546 1546 1546 1547 1548 1549 1550 1551 1552 1553 1554
1521 1522 1524 1526 1528 1530 1531 1533 1534 1535 1537 1538 1539 1539 1540 1540 1541 1541 1542 1543 1543 1544 1545 1545 1545 1544 1544 1544 1544 1543 1543 1542 1543 1542 1542 1542 1544 1545 1546 1547 1549 1550 1550
1520 1522 1524 1526 1527 1529 1530 1531 1533 1534 1535 1537 1538 1538 1539 1539 1540 1540 1540 1540 1541 1542 1542 1542 1542 1541 1541 1541 1541 1541 1540 1540 1540 1540 1539 1540 1540 1541 1542 1543 1544 1545 1545
1521 1523 1525 1526 1527 1528 1529 1530 1532 1533 1534 1535 1536 1537 1538 1538 1538 1538 1538 1538 1538 1539 1539 1539 1539 1539 1538 1539 1539 1539 1539 1538 1538 1537 1537 1537 1537 1537 1538 1538 1539 1540 1540
1522 1524 1525 1527 1528 1529 1530 1531 1531 1532 1533 1533 1534 1535 1535 1535 1535 1535 1535 1535 1535 1536 1536 1537 1537 1536 1536 1536 1536 1536 1536 1536 1535 1535 1534 1534 1534 1534 1533 1533 1534 1535 1536
1522 1523 1523 1525 1527 1528 1528 1529 1529 1529 1530 1531 1531 1532 1532 1532 1533 1532 1532 1532 1532 1532 1533 1534 1534 1533 1533 1533 1533 1533 1532 1532 1531 1531 1531 1531 1531 1531 1530 1529 1529 1530 1532
1521 1522 1522 1522 1524 1525 1525 1525 1526 1527 1528 1528 1529 1529 1530 1530 1530 1530 1529 1528 1528 1528 1529 1529 1530 1530 1530 1530 1529 1529 1528 1528 1527 1527 1527 1527 1527 1526 1526 1526 1525 1525 1526
1519 1520 1521 1521 1522 1523 1523 1523 1523 1524 1525 1525 1525 1526 1526 1526 1526 1525 1525 1524 1524 1524 1523 1524 1524 1525 1524 1524 1524 1524 1524 1524 1523 1522 1522 1522 1522 1522 1521 1520 1520 1520 1520
1518 1519 1521 1521 1521 1522 1522 1523 1523 1524 1524 1524 1523 1523 1522 1521 1520 1519 1519 1518 1519 1519 1519 1519 1519 1519 1519 1518 1519 1520 1521 1521 1519 1518 1517 1516 1516 1516 1515 1514 1514 1515 1514
1515 1517 1519 1520 1521 1521 1521 1521 1520 1520 1520 1520 1519 1518 1517 1516 1516 1515 1513 1512 1513 1513 1513 1513 1513 1513 1513 1513 1513 1514 1514 1514 1513 1512 1510 1510 1509 1509 1509 1508 1508 1508 1508
1514 1516 1517 1518 1519 1519 1519 1518 1517 1517 1516 1515 1514 1512 1511 1510 1510 1508 1507 1506 1506 1506 1506 1507 1507 1506 1506 1506 1506 1506 1506 1506 1505 1504 1502 1501 1501 1502 1502 1502 1501 1501 1501
1513 1515 1516 1516 1516 1515 1515 1514 1513 1512 1511 1510 1508 1507 1505 1504 1503 1502 1501 1499 1499 1499 1499 1499 1499 1499 1499 1499 1499 1498 1498 1497 1495 1494 1493 1492 1492 1493 1494 1495 1495 1494 1495
1512 1513 1514 1514 1513 1513 1512 1510 1509 1507 1505 1503 1502 1500 1498 1497 1496 1495 1494 1493 1492 1492 1492 1492 1492 1492 1493 1493 1493 1492 1491 1490 1487 1486 1485 1484 1484 1485 1486 1487 1488 1489 1489
1510 1510 1511 1511 1510 1509 1508 1506 1504 1502 1500 1498 1496 1494 1492 1490 1489 1487 1486 1485 1485 1485 1485 1485 1485 1485 1486 1486 1486 1487 1486 1484 1482 1480 1479 1479 1478 1478 1479 1480 1482 1483 1484
1507 1507 1507 1506 1505 1505 1503 1502 1500 1497 1495 1493 1490 1488 1485 1484 1482 1480 1478 1477 1477 1477 1476 1477 1477 1477 1477 1477 1478 1478 1480 1480 1480 1477 1477 1476 1475 1474 1474 1475 1477 1478 1479
1504 1503 1503 1501 1500 1499 1498 1497 1495 1493 1491 1488 1485 1482 1479 1477 1474 1472 1471 1469 1468 1468 1468 1469 1469 1469 1469 1470 1470 1472 1473 1474 1475 1474 1473 1472 1471 1471 1471 1471 1472 1473 1474
1501 1501 1500 1499 1497 1495 1494 1492 1491 1489 1486 1483 1480 1477 1473 1469 1465 1463 1462 1460 1459 1459 1460 1460 1461 1461 1461 1462 1463 1465 1467 1469 1469 1469 1469 1468 1468 1468 1468 1469 1469 1470 1471